Weather History for Glendale Luke AFB, AZ

Change the Weather History Date:

Saturday, October 26, 2013

  Actual Average Record
Temperature  
Mean Temperature 72 °F -  
Max Temperature 88 °F 85 °F 99 °F (1965)
Min Temperature 56 °F 49 °F 35 °F (1975)
Cooling Degree Days 7    
Growing Degree Days 22 (Base 50)    
Moisture  
Dew Point 37 °F    
Average Humidity 30    
Maximum Humidity 48    
Minimum Humidity 15    
Precipitation  
Precipitation 0.00 in - - ()
Sea Level Pressure  
Sea Level Pressure 29.99 in    
Wind  
Wind Speed 4 mph (North)    
Max Wind Speed 10 mph    
Max Gust Speed -    
Visibility 10 miles    
Events      
Averages and records for this station are not official NWS values.
T = Trace of Precipitation, MM = Missing Value Source: NWS Daily Summary

Daily Weather History Graph

Daily Weather History Graph

Search for Another Location

Airport:

Trip Planner

Search our weather history database for the weather conditions in past years. The results will help you decide how hot, cold, wet, or windy it might be!

Date:

Astronomy

Oct. 26, 2013 Rise Set
Actual Time 6:43 AM MST 5:42 PM MST
Civil Twilight 6:17 AM MST 6:08 PM MST
Nautical Twilight 5:48 AM MST 6:37 PM MST
Astronomical Twilight 5:19 AM MST 7:06 PM MST
Moon No Moon Rise 12:59 PM MST (10/26)
Length of Visible Light 11h 50m
Length of Day
10h 59m
Waning Gibbous, 52% of the Moon is Illuminated
Oct 26
Waning Gibbous
Oct 26
Last Quarter
Nov 3
New
Nov 9
First Quarter
Nov 17
Full

Hourly Weather History & Observations

Time (MST) Temp. Dew Point Humidity Pressure Visibility Wind Dir Wind Speed Gust Speed Precip Events Conditions
12:58 AM 61.2 °F 33.1 °F 35% 30.00 in 10.0 mi North 3.5 mph - N/A   Clear
1:58 AM 61.3 °F 32.9 °F 34% 30.01 in 10.0 mi North 4.6 mph - N/A   Clear
2:58 AM 58.6 °F 35.2 °F 42% 30.01 in 10.0 mi NE 2.3 mph - N/A   Clear
3:58 AM 57.0 °F 36.0 °F 45% 30.01 in 10.0 mi North 5.8 mph - N/A   Clear
4:58 AM 57.2 °F 36.1 °F 45% 30.02 in 10.0 mi NNW 3.5 mph - N/A   Clear
5:58 AM 56.7 °F 35.8 °F 46% 30.03 in 10.0 mi NNE 4.6 mph - N/A   Clear
6:58 AM 57.2 °F 37.8 °F 48% 30.05 in 10.0 mi North 4.6 mph - N/A   Clear
7:58 AM 63.5 °F 34.9 °F 34% 30.07 in 10.0 mi Variable 1.2 mph - N/A   Clear
8:58 AM 70.2 °F 36.5 °F 29% 30.08 in 10.0 mi Calm Calm - N/A   Clear
9:58 AM 73.2 °F 34.3 °F 24% 30.07 in 10.0 mi South 1.2 mph - N/A   Clear
10:58 AM 78.1 °F 36.1 °F 22% 30.06 in 10.0 mi East 2.3 mph - N/A   Clear
11:58 AM 82.9 °F 37.2 °F 20% 30.04 in 10.0 mi SE 3.5 mph - N/A   Clear
12:58 PM 85.6 °F 38.1 °F 19% 30.00 in 10.0 mi Variable 4.6 mph - N/A   Clear
1:58 PM 86.9 °F 36.7 °F 17% 29.97 in 10.0 mi Calm Calm - N/A   Clear
2:58 PM 88.2 °F 35.6 °F 15% 29.96 in 10.0 mi ESE 5.8 mph - N/A   Clear
3:58 PM 87.6 °F 36.7 °F 16% 29.94 in 10.0 mi WSW 3.5 mph - N/A   Clear
4:58 PM 87.1 °F 36.3 °F 16% 29.93 in 10.0 mi WSW 5.8 mph - N/A   Clear
5:58 PM 83.1 °F 37.9 °F 20% 29.94 in 10.0 mi SW 5.8 mph - N/A   Clear
6:58 PM 77.7 °F 39.9 °F 26% 29.94 in 10.0 mi West 4.6 mph - N/A   Clear
7:58 PM 75.2 °F 39.4 °F 27% 29.94 in 10.0 mi NW 3.5 mph - N/A   Clear
8:58 PM 72.3 °F 39.9 °F 31% 29.94 in 10.0 mi NE 4.6 mph - N/A   Clear
9:58 PM 70.2 °F 38.5 °F 31% 29.94 in 10.0 mi NNE 6.9 mph - N/A   Clear
10:58 PM 68.7 °F 38.7 °F 33% 29.94 in 10.0 mi NNW 9.2 mph - N/A   Clear
11:58 PM 66.7 °F 37.8 °F 34% 29.92 in 10.0 mi NNW 10.4 mph - N/A   Clear